Lancaster, OH

1:40 AM EDT on April 23, 2017 (GMT -0400)
Fairfield County

Weather History for KLHQ - March, 2013

Change the Weather History Date:

Wednesday, March 6, 2013

  Actual Average Record
Temperature  
Mean Temperature 35 °F -  
Max Temperature 37 °F 46 °F 75 °F (1983)
Min Temperature 33 °F 26 °F -4 °F (2015)
Degree Days  
Heating Degree Days 30    
Moisture  
Dew Point 30 °F    
Average Humidity 82    
Maximum Humidity 92    
Minimum Humidity 73    
Precipitation  
Precipitation 0.23 in - - ()
Sea Level Pressure  
Sea Level Pressure 29.88 in    
Wind  
Wind Speed 8 mph (North)    
Max Wind Speed 15 mph    
Max Gust Speed -    
Visibility 7 miles    
Events Snow    
Averages and records for this station are not official NWS values.
T = Trace of Precipitation, MM = Missing Value Source: NWS Daily Summary

Daily Weather History Graph

Daily Weather History Graph

Search for Another Location

Airport or City:

Trip Planner

Search our weather history database for the weather conditions in past years. The results will help you decide how hot, cold, wet, or windy it might be!

Date:

Astronomy

Mar. 06, 2013 Rise Set
Actual Time 6:55 AM EST 6:28 PM EST
Civil Twilight 6:28 AM EST 6:55 PM EST
Nautical Twilight 5:57 AM EST 7:26 PM EST
Astronomical Twilight 5:26 AM EST 7:58 PM EST
Moon 3:03 AM EST (3/6) 1:09 PM EST (3/6)
Length of Visible Light 12h 26m
Length of Day
11h 32m
Waning Crescent, 30% of the Moon is Illuminated
Mar 6
Waning Crescent
Mar 11
New
Mar 19
First Quarter
Mar 27
Full
Apr 3
Last Quarter

Hourly Weather History & Observations

Time (EST) Temp. Windchill Dew Point Humidity Pressure Visibility Wind Dir Wind Speed Gust Speed Precip Events Conditions
12:02 AM 33.8 °F 25.8 °F 30.2 °F 87% 29.51 in 1.5 mi NE 10.4 mph - 0.01 in Snow Light Snow
12:53 AM 33.1 °F 26.9 °F 30.9 °F 92% 29.53 in 1.2 mi NE 6.9 mph - 0.06 in Snow Light Snow
1:45 AM 33.8 °F - 30.2 °F 87% 29.54 in 0.8 mi Calm Calm - 0.06 in Snow Light Snow
1:53 AM 33.1 °F 30.0 °F 30.9 °F 92% 29.56 in 0.8 mi NNW 3.5 mph - 0.07 in Snow Light Snow
2:03 AM 33.8 °F 29.6 °F 30.2 °F 87% 29.54 in 1.0 mi NNW 4.6 mph - 0.01 in Snow Light Snow
2:31 AM 33.8 °F 28.6 °F 30.2 °F 87% 29.54 in 1.2 mi North 5.8 mph - 0.04 in Snow Light Snow
2:38 AM 33.8 °F 27.7 °F 30.2 °F 87% 29.54 in 1.2 mi North 6.9 mph - 0.04 in Snow Light Snow
2:53 AM 33.1 °F 26.9 °F 30.9 °F 92% 29.56 in 1.2 mi North 6.9 mph - 0.05 in Snow Light Snow
3:53 AM 33.1 °F 26.1 °F 30.9 °F 92% 29.58 in 1.8 mi NNE 8.1 mph - 0.03 in Snow Light Snow
4:01 AM 33.8 °F 27.7 °F 30.2 °F 87% 29.57 in 2.0 mi North 6.9 mph - 0.00 in Snow Light Snow
4:10 AM 33.8 °F 27.0 °F 30.2 °F 87% 29.57 in 1.5 mi North 8.1 mph - 0.01 in Snow Light Snow
4:32 AM 33.8 °F 25.3 °F 30.2 °F 87% 29.58 in 2.5 mi North 11.5 mph - 0.01 in Snow Light Snow
4:53 AM 33.1 °F 23.4 °F 30.9 °F 92% 29.62 in 2.5 mi North 13.8 mph - 0.01 in Snow Light Snow
5:12 AM 33.8 °F 24.3 °F 30.2 °F 87% 29.62 in 3.0 mi NNE 13.8 mph - 0.01 in Snow Light Snow
5:53 AM 33.1 °F 23.0 °F 30.0 °F 89% 29.68 in 7.0 mi NE 15.0 mph - 0.01 in   Overcast
6:21 AM 33.8 °F 25.8 °F 30.2 °F 87% 29.70 in 7.0 mi NE 10.4 mph - N/A   Overcast
6:53 AM 33.1 °F 25.5 °F 30.0 °F 89% 29.75 in 10.0 mi NE 9.2 mph - N/A   Overcast
7:08 AM 33.8 °F 27.0 °F 30.2 °F 87% 29.75 in 10.0 mi NE 8.1 mph - N/A   Overcast
7:24 AM 33.8 °F 25.3 °F 28.4 °F 81% 29.77 in 10.0 mi ENE 11.5 mph - N/A   Overcast
7:53 AM 33.1 °F 25.5 °F 28.9 °F 85% 29.83 in 10.0 mi NE 9.2 mph - N/A   Overcast
8:53 AM 33.1 °F 26.1 °F 28.9 °F 85% 29.89 in 10.0 mi NE 8.1 mph - N/A   Mostly Cloudy
9:18 AM 33.8 °F 27.0 °F 28.4 °F 81% 29.90 in 10.0 mi NNE 8.1 mph - N/A   Scattered Clouds
9:48 AM 33.8 °F 27.7 °F 30.2 °F 87% 29.92 in 10.0 mi NE 6.9 mph - N/A   Mostly Cloudy
9:53 AM 35.1 °F 30.1 °F 30.0 °F 82% 29.95 in 10.0 mi NE 5.8 mph - N/A   Mostly Cloudy
10:19 AM 35.6 °F 29.9 °F 30.2 °F 81% 29.94 in 10.0 mi NNE 6.9 mph - N/A   Overcast
10:48 AM 37.4 °F 32.8 °F 30.2 °F 75% 29.96 in 10.0 mi NNE 5.8 mph - N/A   Mostly Cloudy
10:53 AM 37.0 °F 31.0 °F 30.9 °F 79% 29.99 in 10.0 mi NE 8.1 mph - N/A   Mostly Cloudy
11:09 AM 35.6 °F 28.6 °F 28.4 °F 75% 29.97 in 10.0 mi NE 9.2 mph - N/A   Mostly Cloudy
11:53 AM 37.0 °F 31.0 °F 30.0 °F 76% 30.02 in 10.0 mi NE 8.1 mph - N/A   Mostly Cloudy
12:49 PM 37.4 °F 32.8 °F 30.2 °F 75% 30.02 in 10.0 mi NNE 5.8 mph - N/A   Overcast
12:53 PM 37.9 °F 33.5 °F 30.0 °F 73% 30.05 in 10.0 mi NNE 5.8 mph - N/A   Overcast
1:27 PM 37.4 °F 34.9 °F 30.2 °F 75% 30.03 in 10.0 mi North 3.5 mph - N/A   Overcast
1:53 PM 37.9 °F 33.5 °F 30.0 °F 73% 30.06 in 10.0 mi NNW 5.8 mph - N/A   Overcast
2:53 PM 37.0 °F 33.3 °F 30.0 °F 76% 30.08 in 8.0 mi NNW 4.6 mph - N/A   Overcast
3:53 PM 37.0 °F 31.6 °F 30.0 °F 76% 30.11 in 8.0 mi NW 6.9 mph - N/A   Overcast
4:44 PM 37.4 °F 32.1 °F 30.2 °F 75% 30.10 in 8.0 mi NW 6.9 mph - N/A   Overcast
4:53 PM 37.0 °F 31.6 °F 30.0 °F 76% 30.12 in 7.0 mi NW 6.9 mph - N/A   Overcast
5:39 PM 35.6 °F 29.2 °F 28.4 °F 75% 30.12 in 8.0 mi NW 8.1 mph - N/A   Overcast
5:53 PM 36.0 °F 30.3 °F 28.9 °F 76% 30.14 in 8.0 mi NW 6.9 mph - N/A   Overcast
6:20 PM 35.6 °F 30.7 °F 28.4 °F 75% 30.13 in 8.0 mi WNW 5.8 mph - N/A   Overcast
6:53 PM 35.1 °F 30.1 °F 28.9 °F 78% 30.18 in 8.0 mi NW 5.8 mph - N/A   Overcast
7:53 PM 35.1 °F 29.3 °F 28.9 °F 78% 30.20 in 8.0 mi WNW 6.9 mph - N/A   Overcast
8:33 PM 33.8 °F 27.7 °F 28.4 °F 81% 30.18 in 7.0 mi WNW 6.9 mph - N/A   Overcast
8:53 PM 34.0 °F 28.0 °F 28.0 °F 79% 30.21 in 7.0 mi WNW 6.9 mph - N/A   Overcast
9:53 PM 33.1 °F 27.7 °F 27.0 °F 78% 30.22 in 7.0 mi WNW 5.8 mph - N/A   Overcast
10:53 PM 33.1 °F 26.9 °F 27.0 °F 78% 30.22 in 7.0 mi WNW 6.9 mph - N/A   Overcast
11:53 PM 33.1 °F 28.7 °F 26.1 °F 75% 30.22 in 7.0 mi WNW 4.6 mph - N/A   Overcast